SCP
-0 -0 -0 0 -0 -0 0 0 0 0 0 0 0 0 0 0 -0 0 0 -0 0 0 -0 -0 -0 0 0 0 0 0 -0 -0
-0 -0 -0 -0 -0 -0 -0 0 0 0 0 0 0 0 0 0 0 0 -0 -0 0 0 -0 -0 -0 0 0 -0 0 0 -0 0
-0 -0 -0 -0 -0 -0 -0 -0 0 -0 0 -0 -0 0 0 0 0 -0 -0 0 -0 0 -0 -0 -0 0 0 0 0 0 0 0
-0 -0 -0 -0 -0 -0 0 0 -0 0 0 0 0 0 -0 -0 -0 -0 -0 0 0 0 -0 -0 -0 -0 0 -0 0 0 0 0
-0 -0 -0 -0 0 0 0 0 -0 -0 0 -0 -0 -0 -0 -0 -0 0 0 0 0 0 0 -0 0 -0 0 -0 0 0 0 0
-0 -0 -0 -0 0 0 -0 -0 -0 -0 -0 -0 -0 -0 0 0 0 0 0 -0 -0 0 0 -0 -0 -0 0 0 -0 0 0 0
-0 -0 -0 -0 -0 -0 -0 -0 -0 -0 -0 -0 -0 -0 -0 0 -0 -0 -0 -0 0 0 0 0 -0 -0 0 0 0 0 0 0
-0 -0 -0 -0 -0 -0 -0 -0 -0 -0 -0 -0 -0 0 -0 -0 -0 -0 -0 -0 0 0 0 0 -0 -0 0 0 0 0 0 0
-0 -0 -0 -0 -0 -0 -0 -0 -0 -0 -0 -0 -0 0 0 0 -0 0 0 -0 -0 0 0 0 0 0 0 0 0 0 0 0
-0 -0 -0 -0 -0 -0 -0 -0 -0 -0 -0 -0 -0 0 0 0 0 0 0 0 0 0 0 0 0 0 0 -0 0 0 0 0
0 -0 -0 0 -0 -0 -0 -0 -0 -0 -0 -0 -0 -0 0 0 0 0 0 0 0 0 0 0 0 0 0 -0 -0 0 0 0
0 -0 -0 0 0 -0 -0 -0 -0 -0 -0 -0 -0 -0 0 0 0 0 0 0 0 0 0 0 0 0 0 0 0 0 -0 0
0 0 0 0 0 0 -0 -0 -0 -0 -0 -0 -0 0 0 0 0 0 0 0 0 0 0 0 0 0 0 0 0 0 0 0
0 0 0 0 0 0 0 -0 -0 -0 -0 -0 -0 0 0 0 0 0 -0 0 0 0 0 0 0 0 0 0 0 0 0 0
0 0 0 0 0 0 0 0 -0 -0 -0 -0 -0 0 0 0 0 0 0 -0 -0 0 0 0 0 0 0 0 0 0 0 0
0 0 0 -0 0 0 0 0 -0 -0 -0 -0 -0 -0 0 0 0 0 0 0 0 0 -0 0 0 0 0 0 0 0 -0 -0
0 0 0 0 0 -0 0 0 0 0 -0 -0 -0 0 0 0 0 0 0 0 0 0 0 0 -0 -0 -0 0 -0 0 0 -0
0 0 0 0 0 0 0 0 0 0 0 -0 -0 0 0 0 0 0 0 0 0 0 0 0 0 0 0 0 0 0 0 -0
0 0 0 0 0 0 0 0 0 0 0 0 0 0 0 0 0 0 0 0 0 0 0 0 -0 -0 -0 -0 -0 -0 -0 -0
0 0 0 0 0 0 0 0 0 0 0 0 0 0 0 0 0 0 0 0 0 0 0 0 0 0 -0 -0 -0 -0 -0 -0
Wind_Speed_500mb
64 61 58 57 54 51 54 50 43 40 35 32 22 15 12 8 12 13 15 18 19 9 3 4 8 9 11 9 9 14 27 23
70 65 61 57 53 52 50 47 41 41 34 29 19 17 16 11 21 13 28 29 18 9 8 4 8 11 10 12 11 6 13 21
72 69 66 60 57 52 47 42 42 43 33 25 16 10 11 19 25 24 25 21 14 12 8 4 5 10 12 14 10 5 14 17
73 70 67 62 57 53 47 44 43 39 33 24 12 11 20 23 23 27 24 21 14 16 11 2 6 9 11 12 9 12 18 17
74 71 68 64 56 53 52 47 39 36 36 20 14 16 19 27 25 21 24 18 18 15 13 7 8 10 11 9 7 12 18 21
74 70 68 62 56 54 47 49 38 33 32 22 23 19 26 29 24 25 21 19 19 20 15 10 10 12 5 6 11 17 20 17
72 69 67 62 62 56 50 53 44 38 33 29 25 24 32 29 23 26 22 25 25 23 20 15 12 6 1 8 13 20 19 21
75 72 69 65 66 61 52 56 45 41 35 30 26 28 31 28 21 18 17 23 25 24 21 14 9 8 9 12 14 21 22 27
73 75 73 70 69 62 52 52 44 42 40 24 32 30 26 23 21 18 16 19 22 25 22 15 10 14 14 16 17 14 18 28
74 78 75 71 69 60 53 46 49 44 44 34 36 32 26 23 17 19 21 15 15 18 22 21 18 18 19 20 18 18 17 19
78 78 75 71 67 58 56 46 50 44 50 43 40 36 29 22 18 27 24 18 16 14 18 21 26 22 23 24 21 23 17 19
76 74 73 73 68 57 53 49 51 42 56 49 45 37 27 16 20 21 18 19 18 14 18 22 24 28 29 28 25 26 25 33
48 71 71 68 67 58 55 51 53 43 57 49 48 40 32 20 21 25 21 14 10 8 13 16 26 31 32 28 24 33 39 39
33 65 68 63 67 61 58 57 57 45 60 53 50 43 38 24 25 29 23 17 11 10 7 6 15 22 32 26 27 30 41 46
31 29 67 63 66 66 60 60 57 52 60 55 51 46 43 34 29 32 25 21 19 20 21 13 12 23 32 31 33 33 39 44
50 17 42 67 64 63 61 61 57 60 53 52 52 49 43 39 34 33 29 25 25 23 26 22 18 17 33 38 40 40 44 43
57 52 24 44 64 69 59 63 60 60 54 59 56 51 46 40 39 36 37 34 30 27 27 31 31 27 30 42 46 51 51 49
60 59 49 26 40 58 62 64 61 56 59 55 59 54 49 46 42 47 44 42 41 40 38 36 38 43 43 50 55 56 58 55
40 41 51 52 34 32 51 62 64 65 61 58 56 56 54 51 51 55 55 53 52 51 46 44 46 51 51 51 55 60 61 62
30 38 37 49 41 26 25 43 61 70 68 65 65 62 59 57 53 56 60 60 57 56 54 55 52 56 58 60 59 60 61 61
Wind_Direction_500mb
155 154 155 156 152 153 157 160 156 155 148 163 154 178 214 207 184 170 185 179 156 186 196 282 314 328 317 317 312 216 217 216
157 157 159 160 157 156 159 162 161 157 155 161 172 200 220 209 172 155 161 159 168 192 198 239 303 330 346 344 336 198 191 191
160 162 163 165 164 164 163 162 165 162 164 163 177 207 198 172 164 158 150 167 175 180 206 236 313 348 357 10 15 93 160 176
164 166 165 167 168 170 167 168 167 176 180 167 181 187 150 158 169 168 171 178 185 205 212 301 329 2 11 29 46 111 134 131
167 171 171 171 168 168 170 171 167 181 174 172 178 154 170 161 156 164 172 187 188 208 211 248 310 336 2 39 85 116 140 142
173 174 176 175 174 168 165 168 169 173 172 179 169 179 164 157 169 175 184 188 200 214 224 243 296 313 347 49 117 122 129 127
178 179 178 177 176 169 171 176 171 172 181 183 174 171 162 160 173 184 202 206 213 220 230 252 281 266 161 115 141 143 130 124
182 182 180 178 179 174 171 175 174 177 179 176 165 163 158 164 179 193 212 214 219 227 231 233 249 203 165 145 144 150 138 131
188 184 180 180 179 175 171 173 176 182 180 176 161 161 167 178 183 198 211 191 198 219 212 212 191 177 174 160 152 164 147 133
188 183 181 178 180 177 172 175 171 189 182 175 165 164 173 189 204 202 190 182 179 189 195 195 186 176 169 162 154 163 146 139
183 184 180 180 182 181 175 174 177 190 190 179 173 176 190 199 204 178 182 183 189 185 186 187 180 171 171 166 163 158 147 144
182 182 182 182 185 186 178 172 182 191 185 183 183 181 180 182 187 181 181 179 184 181 173 179 180 170 170 165 164 161 153 147
188 187 186 188 188 187 179 175 185 191 186 188 190 186 180 174 179 178 182 166 153 144 167 178 179 176 171 172 165 158 159 153
167 196 194 193 192 188 184 183 189 194 190 192 194 189 183 185 176 178 187 203 190 201 201 160 165 179 176 167 157 157 161 163
82 181 199 200 195 192 189 188 192 196 200 199 197 195 192 190 188 190 193 209 219 197 202 167 151 178 183 174 163 160 169 173
55 87 201 203 201 197 193 190 195 200 204 210 205 204 205 203 203 199 207 217 200 185 202 202 183 169 186 182 177 174 181 187
52 52 94 203 211 206 199 195 197 202 205 209 213 214 214 216 211 212 217 220 222 214 198 191 193 188 188 194 195 198 193 195
36 40 42 54 193 216 208 204 203 206 210 213 216 217 216 215 221 222 222 224 229 233 228 220 204 197 200 202 207 209 212 212
52 45 58 53 45 201 212 215 213 214 213 214 220 219 217 218 221 228 229 230 232 233 236 235 231 228 224 221 218 218 220 223
70 56 61 50 47 66 185 207 219 220 222 222 219 221 224 222 224 224 232 233 234 238 239 240 237 236 236 235 233 232 232 230
Wind_Speed_850mb
64 61 58 57 54 51 54 50 43 40 35 32 22 15 12 8 12 13 15 18 19 9 3 4 8 9 11 9 9 14 27 23
70 65 61 57 53 52 50 47 41 41 34 29 19 17 16 11 21 13 28 29 18 9 8 4 8 11 10 12 11 6 13 21
72 69 66 60 57 52 47 42 42 43 33 25 16 10 11 19 25 24 25 21 14 12 8 4 5 10 12 14 10 5 14 17
73 70 67 62 57 53 47 44 43 39 33 24 12 11 20 23 23 27 24 21 14 16 11 2 6 9 11 12 9 12 18 17
74 71 68 64 56 53 52 47 39 36 36 20 14 16 19 27 25 21 24 18 18 15 13 7 8 10 11 9 7 12 18 21
74 70 68 62 56 54 47 49 38 33 32 22 23 19 26 29 24 25 21 19 19 20 15 10 10 12 5 6 11 17 20 17
72 69 67 62 62 56 50 53 44 38 33 29 25 24 32 29 23 26 22 25 25 23 20 15 12 6 1 8 13 20 19 21
75 72 69 65 66 61 52 56 45 41 35 30 26 28 31 28 21 18 17 23 25 24 21 14 9 8 9 12 14 21 22 27
73 75 73 70 69 62 52 52 44 42 40 24 32 30 26 23 21 18 16 19 22 25 22 15 10 14 14 16 17 14 18 28
74 78 75 71 69 60 53 46 49 44 44 34 36 32 26 23 17 19 21 15 15 18 22 21 18 18 19 20 18 18 17 19
78 78 75 71 67 58 56 46 50 44 50 43 40 36 29 22 18 27 24 18 16 14 18 21 26 22 23 24 21 23 17 19
76 74 73 73 68 57 53 49 51 42 56 49 45 37 27 16 20 21 18 19 18 14 18 22 24 28 29 28 25 26 25 33
48 71 71 68 67 58 55 51 53 43 57 49 48 40 32 20 21 25 21 14 10 8 13 16 26 31 32 28 24 33 39 39
33 65 68 63 67 61 58 57 57 45 60 53 50 43 38 24 25 29 23 17 11 10 7 6 15 22 32 26 27 30 41 46
31 29 67 63 66 66 60 60 57 52 60 55 51 46 43 34 29 32 25 21 19 20 21 13 12 23 32 31 33 33 39 44
50 17 42 67 64 63 61 61 57 60 53 52 52 49 43 39 34 33 29 25 25 23 26 22 18 17 33 38 40 40 44 43
57 52 24 44 64 69 59 63 60 60 54 59 56 51 46 40 39 36 37 34 30 27 27 31 31 27 30 42 46 51 51 49
60 59 49 26 40 58 62 64 61 56 59 55 59 54 49 46 42 47 44 42 41 40 38 36 38 43 43 50 55 56 58 55
40 41 51 52 34 32 51 62 64 65 61 58 56 56 54 51 51 55 55 53 52 51 46 44 46 51 51 51 55 60 61 62
30 38 37 49 41 26 25 43 61 70 68 65 65 62 59 57 53 56 60 60 57 56 54 55 52 56 58 60 59 60 61 61
Wind_Direction_850mb
155 154 155 156 152 153 157 160 156 155 148 163 154 178 214 207 184 170 185 179 156 186 196 282 314 328 317 317 312 216 217 216
157 157 159 160 157 156 159 162 161 157 155 161 172 200 220 209 172 155 161 159 168 192 198 239 303 330 346 344 336 198 191 191
160 162 163 165 164 164 163 162 165 162 164 163 177 207 198 172 164 158 150 167 175 180 206 236 313 348 357 10 15 93 160 176
164 166 165 167 168 170 167 168 167 176 180 167 181 187 150 158 169 168 171 178 185 205 212 301 329 2 11 29 46 111 134 131
167 171 171 171 168 168 170 171 167 181 174 172 178 154 170 161 156 164 172 187 188 208 211 248 310 336 2 39 85 116 140 142
173 174 176 175 174 168 165 168 169 173 172 179 169 179 164 157 169 175 184 188 200 214 224 243 296 313 347 49 117 122 129 127
178 179 178 177 176 169 171 176 171 172 181 183 174 171 162 160 173 184 202 206 213 220 230 252 281 266 161 115 141 143 130 124
182 182 180 178 179 174 171 175 174 177 179 176 165 163 158 164 179 193 212 214 219 227 231 233 249 203 165 145 144 150 138 131
188 184 180 180 179 175 171 173 176 182 180 176 161 161 167 178 183 198 211 191 198 219 212 212 191 177 174 160 152 164 147 133
188 183 181 178 180 177 172 175 171 189 182 175 165 164 173 189 204 202 190 182 179 189 195 195 186 176 169 162 154 163 146 139
183 184 180 180 182 181 175 174 177 190 190 179 173 176 190 199 204 178 182 183 189 185 186 187 180 171 171 166 163 158 147 144
182 182 182 182 185 186 178 172 182 191 185 183 183 181 180 182 187 181 181 179 184 181 173 179 180 170 170 165 164 161 153 147
188 187 186 188 188 187 179 175 185 191 186 188 190 186 180 174 179 178 182 166 153 144 167 178 179 176 171 172 165 158 159 153
167 196 194 193 192 188 184 183 189 194 190 192 194 189 183 185 176 178 187 203 190 201 201 160 165 179 176 167 157 157 161 163
82 181 199 200 195 192 189 188 192 196 200 199 197 195 192 190 188 190 193 209 219 197 202 167 151 178 183 174 163 160 169 173
55 87 201 203 201 197 193 190 195 200 204 210 205 204 205 203 203 199 207 217 200 185 202 202 183 169 186 182 177 174 181 187
52 52 94 203 211 206 199 195 197 202 205 209 213 214 214 216 211 212 217 220 222 214 198 191 193 188 188 194 195 198 193 195
36 40 42 54 193 216 208 204 203 206 210 213 216 217 216 215 221 222 222 224 229 233 228 220 204 197 200 202 207 209 212 212
52 45 58 53 45 201 212 215 213 214 213 214 220 219 217 218 221 228 229 230 232 233 236 235 231 228 224 221 218 218 220 223
70 56 61 50 47 66 185 207 219 220 222 222 219 221 224 222 224 224 232 233 234 238 239 240 237 236 236 235 233 232 232 230